Ontario, OR

5:53 PM MDT on April 23, 2017 (GMT -0600)
Ontario Municipal

Weather History for KONO - August, 2013

Change the Weather History Date:

Thursday, August 29, 2013

  Actual Average Record
Temperature  
Mean Temperature 78 °F 69 °F  
Max Temperature 96 °F 88 °F 105 °F (1967)
Min Temperature 60 °F 51 °F 35 °F (1960)
Degree Days  
Heating Degree Days 0 1  
Month to date heating degree days 0 5  
Since 1 June heating degree days 39 62  
Since 1 July heating degree days 0 10  
Cooling Degree Days 13 5  
Month to date cooling degree days 391 259  
Year to date cooling degree days 1147 782  
Since 1 June cooling degree days 1100 746  
Growing Degree Days 28 (Base 50)    
Moisture  
Dew Point 51 °F    
Average Humidity 43    
Maximum Humidity 72    
Minimum Humidity 14    
Precipitation  
Precipitation 0.00 in 0.00 in 0.04 in (1951)
Month to date precipitation T 0.16  
Year to date precipitation 2.61 6.22  
Sea Level Pressure  
Sea Level Pressure 29.89 in    
Wind  
Wind Speed 2 mph (South)    
Max Wind Speed 9 mph    
Max Gust Speed 16 mph    
Visibility 10 miles    
Events      
T = Trace of Precipitation, MM = Missing Value Source: NWS Daily Summary

Daily Weather History Graph

Daily Weather History Graph

Search for Another Location

Airport or City:

Trip Planner

Search our weather history database for the weather conditions in past years. The results will help you decide how hot, cold, wet, or windy it might be!

Date:

Astronomy

Aug. 29, 2013 Rise Set
Actual Time 7:08 AM MDT 8:28 PM MDT
Civil Twilight 6:38 AM MDT 8:58 PM MDT
Nautical Twilight 6:02 AM MDT 9:34 PM MDT
Astronomical Twilight 5:23 AM MDT 10:12 PM MDT
Moon 12:57 AM MDT (8/29) 4:07 PM MDT (8/29)
Length of Visible Light 14h 20m
Length of Day
13h 20m
Last Quarter, 37% of the Moon is Illuminated
Aug 29
Last Quarter
Sep 5
New
Sep 12
First Quarter
Sep 19
Full
Sep 26
Last Quarter

Hourly Weather History & Observations

Time (MDT) Temp. Heat Index Dew Point Humidity Pressure Visibility Wind Dir Wind Speed Gust Speed Precip Events Conditions
12:53 AM 73.0 °F - 53.1 °F 49% 29.83 in 10.0 mi NE 4.6 mph - N/A   Clear
1:53 AM 70.0 °F - 53.1 °F 55% 29.83 in 10.0 mi Calm Calm - N/A   Clear
2:53 AM 64.9 °F - 54.0 °F 68% 29.84 in 10.0 mi Calm Calm - N/A   Clear
3:53 AM 64.0 °F - 52.0 °F 65% 29.85 in 10.0 mi Calm Calm - N/A   Clear
4:53 AM 64.0 °F - 53.1 °F 67% 29.86 in 10.0 mi Calm Calm - N/A   Clear
5:53 AM 61.0 °F - 52.0 °F 72% 29.87 in 10.0 mi Calm Calm - N/A   Clear
6:53 AM 61.0 °F - 51.1 °F 70% 29.90 in 10.0 mi Calm Calm - N/A   Clear
7:53 AM 62.1 °F - 53.1 °F 72% 29.92 in 10.0 mi Calm Calm - N/A   Clear
8:53 AM 70.0 °F - 54.0 °F 57% 29.93 in 10.0 mi Calm Calm - N/A   Clear
9:53 AM 75.0 °F - 55.9 °F 51% 29.94 in 10.0 mi Calm Calm - N/A   Clear
10:53 AM 78.1 °F - 57.9 °F 50% 29.95 in 10.0 mi Calm Calm - N/A   Clear
11:53 AM 84.0 °F 82.9 °F 55.0 °F 37% 29.94 in 10.0 mi South 3.5 mph - N/A   Clear
12:53 PM 88.0 °F - 50.0 °F 27% 29.93 in 10.0 mi Calm Calm - N/A   Clear
1:53 PM 91.9 °F - 48.0 °F 22% 29.91 in 10.0 mi Calm Calm - N/A   Clear
2:53 PM 93.9 °F - 44.1 °F 18% 29.90 in 10.0 mi Variable 3.5 mph - N/A   Clear
3:53 PM 93.9 °F - 45.0 °F 18% 29.90 in 10.0 mi Variable 5.8 mph - N/A   Clear
4:53 PM 96.1 °F - 39.9 °F 14% 29.88 in 10.0 mi West 3.5 mph - N/A   Clear
5:53 PM 93.9 °F - 46.9 °F 20% 29.87 in 10.0 mi Calm Calm - N/A   Clear
6:53 PM 91.0 °F - 50.0 °F 24% 29.87 in 10.0 mi ESE 5.8 mph - N/A   Clear
7:53 PM 89.1 °F - 48.9 °F 25% 29.87 in 10.0 mi East 4.6 mph - N/A   Clear
8:53 PM 81.0 °F - 48.0 °F 31% 29.88 in 10.0 mi Calm Calm - N/A   Clear
9:53 PM 72.0 °F - 54.0 °F 53% 29.90 in 10.0 mi SW 4.6 mph - N/A   Clear
10:53 PM 70.0 °F - 50.0 °F 49% 29.91 in 10.0 mi SW 4.6 mph - N/A   Clear
11:53 PM 69.1 °F - 46.0 °F 44% 29.93 in 10.0 mi North 9.2 mph 16.1 mph N/A   Clear